Location: Korczew
(51.3586°N, 19.4491°E)
Time: 07:44:57
(UTC+00:00)

KORONAS-FOTON - Pass Details

Date: 19 May 2025
Orbit: 447 x 464 km, 82.4° (Epoch: 16 June)

Event Time Altitude Azimuth Distance (km) Brightness Sun altitude
Exits shadow 21:50:04 49° 139° (SE) 603 3.7 -17.9°
Maximum altitude 21:50:39 57° 97° (E) 544 3.7 -17.9°
Drops below altitude 10° 21:54:06 10° 18° (NNE) 1,605 7.2 -18.0°
Sets 21:56:11 0° 14° (NNE) 2,480 8.5 -18.1°
